Simultaneous Nadir Overpasses (SNOs) Predictions

Prediction of SNOs near equator between AQUA and NPP Satellite Orbit:

Table of predicted SNOs near equator for the next 14.0 days since TLE Epoch: 7/27/2019
Index Date (AQUA) Time (AQUA) AQUA Lat,Lon Date (NPP) Time (NPP) NPP Lat,Lon Distance(km) Time Diff (sec)
1 07/28/2019 00:08:36 -3.93, 21.16 07/27/2019 23:59:14 -3.88, 20.88 31.52 562
2 07/28/2019 00:56:50 -0.69,-170.23 07/28/2019 00:48:44 -0.80,-170.77 61.64 486
3 07/28/2019 01:44:58 5.20, -1.62 07/28/2019 01:38:07 5.35, -2.42 90.87 411
4 07/30/2019 15:42:24 28.18, -36.13 07/30/2019 15:32:24 28.22, -36.51 38.11 600
5 07/30/2019 16:24:39 -2.37, 137.38 07/30/2019 16:15:43 -2.31, 137.01 41.39 536
6 07/30/2019 17:12:53 -2.25, -54.02 07/30/2019 17:05:13 -2.37, -54.65 71.41 460
7 08/02/2019 07:52:33 5.33, 84.97 08/02/2019 07:42:48 5.29, 84.78 21.56 585
8 08/02/2019 08:40:41 -0.81,-106.41 08/02/2019 08:32:11 -0.74,-106.87 51.26 510
9 08/02/2019 09:28:55 -3.80, 62.19 08/02/2019 09:21:41 -3.94, 61.47 81.12 434
10 08/05/2019 00:08:35 3.72,-158.81 08/04/2019 23:59:16 3.66,-159.08 31.38 559
11 08/05/2019 00:56:44 0.74, 9.79 08/05/2019 00:48:40 0.84, 9.25 61.11 484
12 08/05/2019 01:44:57 -5.41, 178.41 08/05/2019 01:38:09 -5.57, 177.61 90.67 408
13 08/07/2019 15:41:09 -23.96, 144.93 08/07/2019 15:31:09 -23.99, 144.61 33.23 600
14 08/07/2019 16:24:38 2.17, -42.60 08/07/2019 16:15:45 2.09, -42.96 41.31 533
15 08/07/2019 17:12:46 2.35, 126.02 08/07/2019 17:05:08 2.46, 125.39 70.86 458




NCC Satellite Simultaneous Nadir Overpasses (SNOs) Prediction Service
